CCSDS_OMM_VERS = 2.0 CREATION_DATE = ORIGINATOR = OBJECT_NAME = ISS (ZARYA) OBJECT_ID = 1998-067A CENTER_NAME = EARTH REF_FRAME = TEME TIME_SYSTEM = UTC MEAN_ELEMENT_THEORY = SGP/SGP4 EPOCH = 2026-09-12T03:26:27.458304 MEAN_MOTION = 15.49086104 ECCENTRICITY = .0004961 INCLINATION = 51.6305 RA_OF_ASC_NODE = 229.7248 ARG_OF_PERICENTER = 131.0693 MEAN_ANOMALY = 229.0724 EPHEMERIS_TYPE = 0 CLASSIFICATION_TYPE = U NORAD_CAT_ID = 25544 ELEMENT_SET_NO = 999 REV_AT_EPOCH = 58523 BSTAR = .98350E-4 MEAN_MOTION_DOT = .49880E-4 MEAN_MOTION_DDOT = 0 CCSDS_OMM_VERS = 2.0 CREATION_DATE = ORIGINATOR = OBJECT_NAME = POISK OBJECT_ID = 2009-060A CENTER_NAME = EARTH REF_FRAME = TEME TIME_SYSTEM = UTC MEAN_ELEMENT_THEORY = SGP/SGP4 EPOCH = 2026-09-12T03:26:27.458304 MEAN_MOTION = 15.49086104 ECCENTRICITY = .0004961 INCLINATION = 51.6305 RA_OF_ASC_NODE = 229.7248 ARG_OF_PERICENTER = 131.0693 MEAN_ANOMALY = 229.0724 EPHEMERIS_TYPE = 0 CLASSIFICATION_TYPE = U NORAD_CAT_ID = 36086 ELEMENT_SET_NO = 999 REV_AT_EPOCH = 58608 BSTAR = .98350E-4 MEAN_MOTION_DOT = .49880E-4 MEAN_MOTION_DDOT = 0 CCSDS_OMM_VERS = 2.0 CREATION_DATE = ORIGINATOR = OBJECT_NAME = CSS (TIANHE) OBJECT_ID = 2021-035A CENTER_NAME = EARTH REF_FRAME = TEME TIME_SYSTEM = UTC MEAN_ELEMENT_THEORY = SGP/SGP4 EPOCH = 2026-09-12T03:38:29.096160 MEAN_MOTION = 15.59839597 ECCENTRICITY = .0002631 INCLINATION = 41.4683 RA_OF_ASC_NODE = 154.0266 ARG_OF_PERICENTER = 272.9241 MEAN_ANOMALY = 87.1296 EPHEMERIS_TYPE = 0 CLASSIFICATION_TYPE = U NORAD_CAT_ID = 48274 ELEMENT_SET_NO = 999 REV_AT_EPOCH = 30674 BSTAR = .21733E-3 MEAN_MOTION_DOT = .17671E-3 MEAN_MOTION_DDOT = 0 CCSDS_OMM_VERS = 2.0 CREATION_DATE = ORIGINATOR = OBJECT_NAME = ISS (NAUKA) OBJECT_ID = 2021-066A CENTER_NAME = EARTH REF_FRAME = TEME TIME_SYSTEM = UTC MEAN_ELEMENT_THEORY = SGP/SGP4 EPOCH = 2026-09-12T03:26:27.458304 MEAN_MOTION = 15.49086104 ECCENTRICITY = .0004961 INCLINATION = 51.6305 RA_OF_ASC_NODE = 229.7248 ARG_OF_PERICENTER = 131.0693 MEAN_ANOMALY = 229.0724 EPHEMERIS_TYPE = 0 CLASSIFICATION_TYPE = U NORAD_CAT_ID = 49044 ELEMENT_SET_NO = 999 REV_AT_EPOCH = 58612 BSTAR = .98350E-4 MEAN_MOTION_DOT = .49880E-4 MEAN_MOTION_DDOT = 0 CCSDS_OMM_VERS = 2.0 CREATION_DATE = ORIGINATOR = OBJECT_NAME = FREGAT DEB OBJECT_ID = 2011-037PF CENTER_NAME = EARTH REF_FRAME = TEME TIME_SYSTEM = UTC MEAN_ELEMENT_THEORY = SGP/SGP4 EPOCH = 2026-09-11T23:13:07.611744 MEAN_MOTION = 12.44351774 ECCENTRICITY = .0940641 INCLINATION = 51.6436 RA_OF_ASC_NODE = 100.5439 ARG_OF_PERICENTER = 115.133 MEAN_ANOMALY = 255.0053 EPHEMERIS_TYPE = 0 CLASSIFICATION_TYPE = U NORAD_CAT_ID = 49271 ELEMENT_SET_NO = 999 REV_AT_EPOCH = 23584 BSTAR = .23640E-1 MEAN_MOTION_DOT = .16685E-3 MEAN_MOTION_DDOT = 0 CCSDS_OMM_VERS = 2.0 CREATION_DATE = ORIGINATOR = OBJECT_NAME = CSS (WENTIAN) OBJECT_ID = 2022-085A CENTER_NAME = EARTH REF_FRAME = TEME TIME_SYSTEM = UTC MEAN_ELEMENT_THEORY = SGP/SGP4 EPOCH = 2026-09-11T21:29:41.780544 MEAN_MOTION = 15.59830354 ECCENTRICITY = .00026058 INCLINATION = 41.4684 RA_OF_ASC_NODE = 155.5829 ARG_OF_PERICENTER = 272.3198 MEAN_ANOMALY = 87.7342 EPHEMERIS_TYPE = 0 CLASSIFICATION_TYPE = U NORAD_CAT_ID = 53239 ELEMENT_SET_NO = 999 REV_AT_EPOCH = 28823 BSTAR = .21444E-3 MEAN_MOTION_DOT = .17425E-3 MEAN_MOTION_DDOT = 0 CCSDS_OMM_VERS = 2.0 CREATION_DATE = ORIGINATOR = OBJECT_NAME = CSS (MENGTIAN) OBJECT_ID = 2022-143A CENTER_NAME = EARTH REF_FRAME = TEME TIME_SYSTEM = UTC MEAN_ELEMENT_THEORY = SGP/SGP4 EPOCH = 2026-09-12T03:38:29.096160 MEAN_MOTION = 15.59839597 ECCENTRICITY = .0002631 INCLINATION = 41.4683 RA_OF_ASC_NODE = 154.0266 ARG_OF_PERICENTER = 272.9241 MEAN_ANOMALY = 87.1296 EPHEMERIS_TYPE = 0 CLASSIFICATION_TYPE = U NORAD_CAT_ID = 54216 ELEMENT_SET_NO = 999 REV_AT_EPOCH = 30762 BSTAR = .21733E-3 MEAN_MOTION_DOT = .17671E-3 MEAN_MOTION_DDOT = 0 CCSDS_OMM_VERS = 2.0 CREATION_DATE = ORIGINATOR = OBJECT_NAME = HRC MONOBLOCK CAMERA OBJECT_ID = 1998-067XR CENTER_NAME = EARTH REF_FRAME = TEME TIME_SYSTEM = UTC MEAN_ELEMENT_THEORY = SGP/SGP4 EPOCH = 2026-09-11T23:58:10.216704 MEAN_MOTION = 15.93120036 ECCENTRICITY = .000493 INCLINATION = 51.6152 RA_OF_ASC_NODE = 187.9482 ARG_OF_PERICENTER = 121.1727 MEAN_ANOMALY = 238.9764 EPHEMERIS_TYPE = 0 CLASSIFICATION_TYPE = U NORAD_CAT_ID = 66052 ELEMENT_SET_NO = 999 REV_AT_EPOCH = 5174 BSTAR = .56260E-3 MEAN_MOTION_DOT = .20003E-2 MEAN_MOTION_DDOT = .26303E-4 CCSDS_OMM_VERS = 2.0 CREATION_DATE = ORIGINATOR = OBJECT_NAME = SZ-21 MODULE OBJECT_ID = 2025-246C CENTER_NAME = EARTH REF_FRAME = TEME TIME_SYSTEM = UTC MEAN_ELEMENT_THEORY = SGP/SGP4 EPOCH = 2026-09-12T01:00:48.843072 MEAN_MOTION = 15.84902372 ECCENTRICITY = .0012068 INCLINATION = 41.4697 RA_OF_ASC_NODE = 123.1786 ARG_OF_PERICENTER = 281.0811 MEAN_ANOMALY = 78.8679 EPHEMERIS_TYPE = 0 CLASSIFICATION_TYPE = U NORAD_CAT_ID = 66515 ELEMENT_SET_NO = 999 REV_AT_EPOCH = 4748 BSTAR = .26718E-3 MEAN_MOTION_DOT = .64969E-3 MEAN_MOTION_DDOT = 0 CCSDS_OMM_VERS = 2.0 CREATION_DATE = ORIGINATOR = OBJECT_NAME = DUPLEX OBJECT_ID = 1998-067XS CENTER_NAME = EARTH REF_FRAME = TEME TIME_SYSTEM = UTC MEAN_ELEMENT_THEORY = SGP/SGP4 EPOCH = 2026-09-11T23:28:35.025024 MEAN_MOTION = 15.69301116 ECCENTRICITY = .000443 INCLINATION = 51.6245 RA_OF_ASC_NODE = 209.0602 ARG_OF_PERICENTER = 124.2774 MEAN_ANOMALY = 235.8643 EPHEMERIS_TYPE = 0 CLASSIFICATION_TYPE = U NORAD_CAT_ID = 66906 ELEMENT_SET_NO = 999 REV_AT_EPOCH = 4425 BSTAR = .39561E-3 MEAN_MOTION_DOT = .46896E-3 MEAN_MOTION_DDOT = 0 CCSDS_OMM_VERS = 2.0 CREATION_DATE = ORIGINATOR = OBJECT_NAME = KNACKSAT-2 OBJECT_ID = 1998-067XZ CENTER_NAME = EARTH REF_FRAME = TEME TIME_SYSTEM = UTC MEAN_ELEMENT_THEORY = SGP/SGP4 EPOCH = 2026-09-11T07:01:09.547968 MEAN_MOTION = 15.68357883 ECCENTRICITY = .00078339 INCLINATION = 51.6239 RA_OF_ASC_NODE = 218.7617 ARG_OF_PERICENTER = 147.0851 MEAN_ANOMALY = 213.0634 EPHEMERIS_TYPE = 0 CLASSIFICATION_TYPE = U NORAD_CAT_ID = 67683 ELEMENT_SET_NO = 999 REV_AT_EPOCH = 3375 BSTAR = .49913E-3 MEAN_MOTION_DOT = .57179E-3 MEAN_MOTION_DDOT = 0 CCSDS_OMM_VERS = 2.0 CREATION_DATE = ORIGINATOR = OBJECT_NAME = GXIBA-1 OBJECT_ID = 1998-067YB CENTER_NAME = EARTH REF_FRAME = TEME TIME_SYSTEM = UTC MEAN_ELEMENT_THEORY = SGP/SGP4 EPOCH = 2026-09-11T22:03:54.813888 MEAN_MOTION = 15.72205424 ECCENTRICITY = .00085815 INCLINATION = 51.6227 RA_OF_ASC_NODE = 213.1648 ARG_OF_PERICENTER = 146.7135 MEAN_ANOMALY = 213.4404 EPHEMERIS_TYPE = 0 CLASSIFICATION_TYPE = U NORAD_CAT_ID = 67685 ELEMENT_SET_NO = 999 REV_AT_EPOCH = 3388 BSTAR = .61552E-3 MEAN_MOTION_DOT = .83313E-3 MEAN_MOTION_DDOT = 0 CCSDS_OMM_VERS = 2.0 CREATION_DATE = ORIGINATOR = OBJECT_NAME = UITMSAT-2 OBJECT_ID = 1998-067YC CENTER_NAME = EARTH REF_FRAME = TEME TIME_SYSTEM = UTC MEAN_ELEMENT_THEORY = SGP/SGP4 EPOCH = 2026-09-10T14:14:52.382976 MEAN_MOTION = 15.82332066 ECCENTRICITY = .000784 INCLINATION = 51.6208 RA_OF_ASC_NODE = 214.7641 ARG_OF_PERICENTER = 114.832 MEAN_ANOMALY = 245.3498 EPHEMERIS_TYPE = 0 CLASSIFICATION_TYPE = U NORAD_CAT_ID = 67686 ELEMENT_SET_NO = 999 REV_AT_EPOCH = 3374 BSTAR = .83074E-3 MEAN_MOTION_DOT = .17906E-2 MEAN_MOTION_DDOT = 0 CCSDS_OMM_VERS = 2.0 CREATION_DATE = ORIGINATOR = OBJECT_NAME = LEOPARD OBJECT_ID = 1998-067YD CENTER_NAME = EARTH REF_FRAME = TEME TIME_SYSTEM = UTC MEAN_ELEMENT_THEORY = SGP/SGP4 EPOCH = 2026-09-11T21:41:00.377376 MEAN_MOTION = 15.73146341 ECCENTRICITY = .00077969 INCLINATION = 51.6252 RA_OF_ASC_NODE = 213.847 ARG_OF_PERICENTER = 125.5822 MEAN_ANOMALY = 234.5904 EPHEMERIS_TYPE = 0 CLASSIFICATION_TYPE = U NORAD_CAT_ID = 67687 ELEMENT_SET_NO = 999 REV_AT_EPOCH = 3379 BSTAR = .10037E-2 MEAN_MOTION_DOT = .14278E-2 MEAN_MOTION_DDOT = 0 CCSDS_OMM_VERS = 2.0 CREATION_DATE = ORIGINATOR = OBJECT_NAME = HMU-SAT2 OBJECT_ID = 1998-067YE CENTER_NAME = EARTH REF_FRAME = TEME TIME_SYSTEM = UTC MEAN_ELEMENT_THEORY = SGP/SGP4 EPOCH = 2026-09-11T07:31:12.856800 MEAN_MOTION = 15.77060963 ECCENTRICITY = .00077494 INCLINATION = 51.6244 RA_OF_ASC_NODE = 213.6175 ARG_OF_PERICENTER = 117.7047 MEAN_ANOMALY = 242.4741 EPHEMERIS_TYPE = 0 CLASSIFICATION_TYPE = U NORAD_CAT_ID = 67688 ELEMENT_SET_NO = 999 REV_AT_EPOCH = 3374 BSTAR = .69660E-3 MEAN_MOTION_DOT = .11704E-2 MEAN_MOTION_DDOT = 0 CCSDS_OMM_VERS = 2.0 CREATION_DATE = ORIGINATOR = OBJECT_NAME = CREW DRAGON 12 OBJECT_ID = 2026-031A CENTER_NAME = EARTH REF_FRAME = TEME TIME_SYSTEM = UTC MEAN_ELEMENT_THEORY = SGP/SGP4 EPOCH = 2026-09-11T15:03:17.011872 MEAN_MOTION = 15.49080967 ECCENTRICITY = .00049581 INCLINATION = 51.6304 RA_OF_ASC_NODE = 232.2787 ARG_OF_PERICENTER = 129.1564 MEAN_ANOMALY = 230.9865 EPHEMERIS_TYPE = 0 CLASSIFICATION_TYPE = U NORAD_CAT_ID = 67796 ELEMENT_SET_NO = 999 REV_AT_EPOCH = 58608 BSTAR = .10088E-3 MEAN_MOTION_DOT = .51270E-4 MEAN_MOTION_DDOT = 0 CCSDS_OMM_VERS = 2.0 CREATION_DATE = ORIGINATOR = OBJECT_NAME = CYGNUS NG-24 OBJECT_ID = 2026-079A CENTER_NAME = EARTH REF_FRAME = TEME TIME_SYSTEM = UTC MEAN_ELEMENT_THEORY = SGP/SGP4 EPOCH = 2026-09-11T15:03:17.011872 MEAN_MOTION = 15.49080967 ECCENTRICITY = .00049581 INCLINATION = 51.6304 RA_OF_ASC_NODE = 232.2787 ARG_OF_PERICENTER = 129.1564 MEAN_ANOMALY = 230.9865 EPHEMERIS_TYPE = 0 CLASSIFICATION_TYPE = U NORAD_CAT_ID = 68689 ELEMENT_SET_NO = 999 REV_AT_EPOCH = 58620 BSTAR = .10088E-3 MEAN_MOTION_DOT = .51270E-4 MEAN_MOTION_DDOT = 0 CCSDS_OMM_VERS = 2.0 CREATION_DATE = ORIGINATOR = OBJECT_NAME = PROGRESS-MS 34 OBJECT_ID = 2026-093A CENTER_NAME = EARTH REF_FRAME = TEME TIME_SYSTEM = UTC MEAN_ELEMENT_THEORY = SGP/SGP4 EPOCH = 2026-09-11T15:03:17.011872 MEAN_MOTION = 15.49080967 ECCENTRICITY = .00049581 INCLINATION = 51.6304 RA_OF_ASC_NODE = 232.2787 ARG_OF_PERICENTER = 129.1564 MEAN_ANOMALY = 230.9865 EPHEMERIS_TYPE = 0 CLASSIFICATION_TYPE = U NORAD_CAT_ID = 68837 ELEMENT_SET_NO = 999 REV_AT_EPOCH = 58624 BSTAR = .10088E-3 MEAN_MOTION_DOT = .51270E-4 MEAN_MOTION_DDOT = 0 CCSDS_OMM_VERS = 2.0 CREATION_DATE = ORIGINATOR = OBJECT_NAME = TIANZHOU-10 OBJECT_ID = 2026-102A CENTER_NAME = EARTH REF_FRAME = TEME TIME_SYSTEM = UTC MEAN_ELEMENT_THEORY = SGP/SGP4 EPOCH = 2026-09-11T21:29:41.780544 MEAN_MOTION = 15.59830354 ECCENTRICITY = .00026058 INCLINATION = 41.4684 RA_OF_ASC_NODE = 155.5829 ARG_OF_PERICENTER = 272.3198 MEAN_ANOMALY = 87.7342 EPHEMERIS_TYPE = 0 CLASSIFICATION_TYPE = U NORAD_CAT_ID = 69049 ELEMENT_SET_NO = 999 REV_AT_EPOCH = 30748 BSTAR = .21444E-3 MEAN_MOTION_DOT = .17425E-3 MEAN_MOTION_DDOT = 0 CCSDS_OMM_VERS = 2.0 CREATION_DATE = ORIGINATOR = OBJECT_NAME = SHENZHOU-23 (SZ-23) OBJECT_ID = 2026-113A CENTER_NAME = EARTH REF_FRAME = TEME TIME_SYSTEM = UTC MEAN_ELEMENT_THEORY = SGP/SGP4 EPOCH = 2026-09-11T21:29:41.780544 MEAN_MOTION = 15.59830354 ECCENTRICITY = .00026058 INCLINATION = 41.4684 RA_OF_ASC_NODE = 155.5829 ARG_OF_PERICENTER = 272.3198 MEAN_ANOMALY = 87.7342 EPHEMERIS_TYPE = 0 CLASSIFICATION_TYPE = U NORAD_CAT_ID = 69180 ELEMENT_SET_NO = 999 REV_AT_EPOCH = 30726 BSTAR = .21444E-3 MEAN_MOTION_DOT = .17425E-3 MEAN_MOTION_DDOT = 0 CCSDS_OMM_VERS = 2.0 CREATION_DATE = ORIGINATOR = OBJECT_NAME = SOYUZ-MS 29 OBJECT_ID = 2026-162A CENTER_NAME = EARTH REF_FRAME = TEME TIME_SYSTEM = UTC MEAN_ELEMENT_THEORY = SGP/SGP4 EPOCH = 2026-09-11T15:03:17.011872 MEAN_MOTION = 15.49080967 ECCENTRICITY = .00049581 INCLINATION = 51.6304 RA_OF_ASC_NODE = 232.2787 ARG_OF_PERICENTER = 129.1564 MEAN_ANOMALY = 230.9865 EPHEMERIS_TYPE = 0 CLASSIFICATION_TYPE = U NORAD_CAT_ID = 100057 ELEMENT_SET_NO = 999 REV_AT_EPOCH = 58625 BSTAR = .10088E-3 MEAN_MOTION_DOT = .51270E-4 MEAN_MOTION_DDOT = 0